Location: Lane
(33.5226°N, 79.8788°W)
Time: 20:14:02
(UTC+00:00)

Explorer 11/Cluster Stage 4 - Pass Details

Date: 06 October 2022
Orbit: 466 x 1247 km, 28.8° (Epoch: 01 December)

Event Time Altitude Azimuth Distance (km) Brightness Sun altitude
Rises 16:38:09 0° 257° (WSW) 4,161 10.3 50.6°
Reaches altitude 10° 16:41:06 10° 254° (WSW) 3,211 9.9 50.7°
Maximum altitude 16:49:10 61° 176° (S) 1,351 10.2 50.9°
Drops below altitude 10° 16:56:36 10° 98° (E) 2,970 9.8 51.1°
Sets 16:59:15 0° 95° (E) 3,833 10.2 51.1°
